IRIDIUM 33 DEB, 39781

Orbit data source: Space-Track

IRIDIUM 33 DEB, 39781 is space debris in LEO originally from a launch on Sun, 14 Sep 1997 UTC launched from the Tyuratam Missile And Space Complex (TTMTR). The debris from Iridium 33, an American commercial communications satellite, has been tracked extensively since its accidental collision with the defunct Russian satellite Cosmos 2251 in 2009. This event, occurring at high speed in low Earth orbit (LEO), generated thousands of pieces of space debris, significantly increasing the risk of further collisions. The Iridium 33 debris cloud has impacted space traffic management and orbital debris mitigation strategies, making it a subject of ongoing study in space situational awareness.

Loading next visibility...
Identifier
39781, 1997-051AAN
Orbit
LEO
Country
Flag of USUS
Related business
Manufacturer
Unknown
Mission
Spacecraft
Bus & Motor
Unknown
Mass
Unknown
Launch date (UTC)
1997-09-14 (29 years ago)
Launch vehicle
Unknown
Launch site
Tyuratam Missile And Space Complex (TTMTR)
Object type
Payload
Rocket body
Debris
Shape & HBR
Unknown shape, 0.1 m
Radar Cross Section
Small (<0.1 m²)

Expand to show TLE details & history
Last TLE update: 1 day ago

TLE from 1 day ago
0 IRIDIUM 33 DEB
1 39781U 97051AAN 26127.95206323  .00008476  00000-0  31004-2 0  9993
2 39781  86.3754 197.6051 0178032 163.7669  14.5925 14.24383475101853
Epoch: 2026-05-07T22:50Z
TLE epoch observation values (Epoch: 2026-05-07T22:50:58.263Z)
Latitude
0.99957°
Longitude
169.00853°
Altitude
689.748 km
Speed
7.576 km/s
True Right ascension
01h 10m 10s
True Declination
0° 59' 37"
Sunlit
Object was in daylight at epoch
Visualization orbit readout
Latitude
Unknown
Longitude
Unknown
Altitude
Unknown
Speed
Unknown
Apparent Right ascension
Unknown
Apparent Declination
Unknown
Sunlit
N/A
Visualization observer readout
Local Sidereal Time
06:44:25
Azimuth
Unknown
Elevation
Unknown
Doppler factor
Unknown
Orbital elements
Apogee altitude
935.472 km
Perigee altitude
679.616 km
Semi-major axis
7,185.681 km
Eccentricity
0.0178
Inclination
86.3754°
RAAN
197.6051°
Arg. of periapsis
163.7669°
True anomaly
15.11778°
Mean anomaly
14.5925°
Eccentric anomaly
14.854°
Mean motion
3.56321 °/min
Orbital period
101.03 mins
BSTAR
0.0031004

Documentation

Showing up to 5 results
|